TimeAEST,TemperatureF,Dew PointF,Humidity,Sea Level PressureIn,VisibilityMPH,Wind Direction,Wind SpeedMPH,Gust SpeedMPH,PrecipitationIn,Events,Conditions,WindDirDegrees,DateUTC
12:00 AM,66,64,91,29.91,,Calm,Calm,,,,,,2012-10-07 14:00:00
12:00 AM,66.2,64.4,94,29.89,-9999.0,Calm,Calm,-,N/A,,Clear,0,2012-10-07 14:00:00
12:30 AM,66.2,64.4,94,29.89,-9999.0,Calm,Calm,-,N/A,,Clear,0,2012-10-07 14:30:00
1:00 AM,67,64,88,29.90,,West,2.3,,,,,270,2012-10-07 15:00:00
1:00 AM,66.2,64.4,94,29.89,-9999.0,West,2.3,-,N/A,,Clear,270,2012-10-07 15:00:00
1:30 AM,66.2,62.6,88,29.89,-9999.0,Calm,Calm,-,N/A,,Clear,0,2012-10-07 15:30:00
2:00 AM,64.4,64.4,100,29.86,-9999.0,WSW,2.3,-,N/A,,Clear,240,2012-10-07 16:00:00
2:30 AM,64.4,64.4,100,29.86,6.2,Calm,Calm,-,N/A,,Partly Cloudy,0,2012-10-07 16:30:00
3:00 AM,64,63,95,29.87,,Calm,Calm,,,,,,2012-10-07 17:00:00
3:00 AM,64.4,62.6,94,29.86,6.2,Calm,Calm,-,N/A,,Partly Cloudy,0,2012-10-07 17:00:00
3:30 AM,66.2,62.6,88,29.86,6.2,SSE,3.5,-,N/A,,Partly Cloudy,150,2012-10-07 17:30:00
4:00 AM,64,63,95,29.88,,WNW,3.5,,,,,290,2012-10-07 18:00:00
4:00 AM,64.4,62.6,94,29.86,6.2,WNW,3.5,-,N/A,,Partly Cloudy,290,2012-10-07 18:00:00
4:30 AM,62.6,60.8,94,29.89,6.2,Calm,Calm,-,N/A,,Partly Cloudy,0,2012-10-07 18:30:00
5:00 AM,62.6,62.6,100,29.89,6.2,Calm,Calm,-,N/A,,Partly Cloudy,0,2012-10-07 19:00:00
5:30 AM,62.6,62.6,100,29.89,6.2,Calm,Calm,-,N/A,,Partly Cloudy,0,2012-10-07 19:30:00
6:00 AM,64.4,62.6,94,29.89,6.2,Calm,Calm,-,N/A,,Partly Cloudy,0,2012-10-07 20:00:00
6:30 AM,64.4,62.6,94,29.89,6.2,Calm,Calm,-,N/A,,Partly Cloudy,0,2012-10-07 20:30:00
7:00 AM,68,64,82,29.93,,Calm,Calm,,,,,,2012-10-07 21:00:00
7:00 AM,68.0,64.4,88,29.92,6.2,Calm,Calm,-,N/A,,Partly Cloudy,0,2012-10-07 21:00:00
7:30 AM,69.8,64.4,83,29.92,6.2,Calm,Calm,-,N/A,,Partly Cloudy,0,2012-10-07 21:30:00
8:00 AM,75.2,66.2,73,29.92,6.2,North,1.2,-,N/A,,Partly Cloudy,10,2012-10-07 22:00:00
8:30 AM,77.0,64.4,65,29.92,6.2,SE,6.9,-,N/A,,Partly Cloudy,130,2012-10-07 22:30:00
9:00 AM,78,65,56,29.94,19,East,4.6,,,,Partly Cloudy,90,2012-10-07 23:00:00
9:00 AM,78.8,64.4,61,29.92,6.2,East,4.6,-,N/A,,Partly Cloudy,90,2012-10-07 23:00:00
9:30 AM,80.6,64.4,58,29.92,6.2,North,1.2,-,N/A,,Partly Cloudy,10,2012-10-07 23:30:00
10:00 AM,79,65,52,29.94,,NNE,8.1,,,,,30,2012-10-08 00:00:00
10:00 AM,78.8,64.4,61,29.92,6.2,NNE,8.1,-,N/A,,Partly Cloudy,30,2012-10-08 00:00:00
10:30 AM,78.8,64.4,61,29.92,6.2,NE,10.4,-,N/A,,Partly Cloudy,50,2012-10-08 00:30:00
11:00 AM,80.6,66.2,61,29.92,6.2,NE,10.4,-,N/A,,Partly Cloudy,50,2012-10-08 01:00:00
11:30 AM,80.6,64.4,58,29.89,6.2,NNE,10.4,-,N/A,,Partly Cloudy,30,2012-10-08 01:30:00
12:00 PM,80,65,51,29.89,19,NNE,10.4,,,,Partly Cloudy,30,2012-10-08 02:00:00
12:00 PM,80.6,64.4,58,29.89,6.2,NNE,10.4,-,N/A,,Partly Cloudy,30,2012-10-08 02:00:00
12:30 PM,80.6,66.2,61,29.86,6.2,NNE,10.4,-,N/A,,Partly Cloudy,30,2012-10-08 02:30:00
1:00 PM,82,67,50,29.87,,NNE,10.4,,,,,20,2012-10-08 03:00:00
1:00 PM,82.4,66.2,58,29.86,6.2,NNE,10.4,-,N/A,,Partly Cloudy,20,2012-10-08 03:00:00
1:30 PM,80.6,66.2,61,29.83,6.2,NNE,10.4,-,N/A,,Partly Cloudy,30,2012-10-08 03:30:00
2:00 PM,80.6,66.2,61,29.83,6.2,NE,10.4,-,N/A,,Partly Cloudy,40,2012-10-08 04:00:00
2:30 PM,78.8,64.4,61,29.83,6.2,NE,10.4,-,N/A,,Partly Cloudy,50,2012-10-08 04:30:00
3:00 PM,79,65,53,29.82,19,NE,9.2,,,,Partly Cloudy,50,2012-10-08 05:00:00
3:00 PM,78.8,64.4,61,29.80,6.2,NE,9.2,-,N/A,,Partly Cloudy,50,2012-10-08 05:00:00
3:30 PM,78.8,64.4,61,29.80,-9999.0,NE,9.2,-,N/A,,Clear,40,2012-10-08 05:30:00
4:00 PM,78,65,55,29.82,,NNE,8.1,,,,,30,2012-10-08 06:00:00
4:00 PM,78.8,64.4,61,29.80,-9999.0,NNE,8.1,-,N/A,,Clear,30,2012-10-08 06:00:00
4:30 PM,77.0,64.4,65,29.80,-9999.0,NNE,6.9,-,N/A,,Clear,30,2012-10-08 06:30:00
5:00 PM,77.0,64.4,65,29.80,-9999.0,North,6.9,-,N/A,,Clear,10,2012-10-08 07:00:00
5:30 PM,77.0,64.4,65,29.80,-9999.0,North,5.8,-,N/A,,Clear,10,2012-10-08 07:30:00
6:00 PM,75,65,63,29.81,,North,4.6,,,,,10,2012-10-08 08:00:00
6:00 PM,75.2,64.4,69,29.80,-9999.0,North,4.6,-,N/A,,Clear,10,2012-10-08 08:00:00
6:30 PM,73.4,66.2,78,29.80,-9999.0,North,1.2,-,N/A,,Clear,350,2012-10-08 08:30:00
7:00 PM,71,66,80,29.83,,Calm,Calm,,,,,,2012-10-08 09:00:00
7:00 PM,71.6,66.2,83,29.80,-9999.0,Calm,Calm,-,N/A,,Clear,0,2012-10-08 09:00:00
7:30 PM,69.8,66.2,88,29.83,-9999.0,Calm,Calm,-,N/A,,Clear,0,2012-10-08 09:30:00
8:00 PM,71.6,66.2,83,29.83,-9999.0,WSW,1.2,-,N/A,,Clear,250,2012-10-08 10:00:00
8:30 PM,69.8,66.2,88,29.83,6.2,Calm,Calm,-,N/A,,Partly Cloudy,0,2012-10-08 10:30:00
9:00 PM,68,65,86,29.85,,Calm,Calm,,,,,,2012-10-08 11:00:00
9:00 PM,68.0,64.4,88,29.83,6.2,Calm,Calm,-,N/A,,Partly Cloudy,0,2012-10-08 11:00:00
9:30 PM,68.0,66.2,94,29.86,-9999.0,Calm,Calm,-,N/A,,Clear,0,2012-10-08 11:30:00
10:00 PM,67,65,91,29.87,,Calm,Calm,,,,,,2012-10-08 12:00:00
10:00 PM,66.2,64.4,94,29.86,-9999.0,Calm,Calm,-,N/A,,Clear,0,2012-10-08 12:00:00
10:30 PM,66.2,64.4,94,29.86,-9999.0,Calm,Calm,-,N/A,,Clear,0,2012-10-08 12:30:00
11:00 PM,66.2,64.4,94,29.86,-9999.0,Calm,Calm,-,N/A,,Clear,0,2012-10-08 13:00:00
11:30 PM,66.2,64.4,94,29.86,-9999.0,Calm,Calm,-,N/A,,Clear,0,2012-10-08 13:30:00